Weather History for Sturgis, MI

Change the Weather History Date:

Friday, July 19, 2013

  Actual Average (KHAI) Record (KHAI)
Temperature  
Mean Temperature 82 °F -  
Max Temperature 91 °F 85 °F 95 °F (1977)
Min Temperature 73 °F 63 °F 45 °F (1979)
Cooling Degree Days 17    
Growing Degree Days 32 (Base 50)    
Moisture  
Dew Point 73 °F    
Average Humidity 75    
Maximum Humidity 100    
Minimum Humidity 52    
Precipitation  
Precipitation 0.00 in - - ()
Sea Level Pressure  
Sea Level Pressure 29.89 in    
Wind  
Wind Speed 9 mph (SW)    
Max Wind Speed 20 mph    
Max Gust Speed 26 mph    
Visibility 9 miles    
Events      
Averages and records for this station are not official NWS values.
T = Trace of Precipitation, MM = Missing Value Source: NWS Daily Summary

Daily Weather History Graph

Daily Weather History Graph

Search for Another Location

Airport:

Trip Planner

Search our weather history database for the weather conditions in past years. The results will help you decide how hot, cold, wet, or windy it might be!

Date:

Astronomy

Jul. 19, 2013 Rise Set
Actual Time 6:23 AM EDT 9:12 PM EDT
Civil Twilight 5:50 AM EDT 9:44 PM EDT
Nautical Twilight 5:09 AM EDT 10:25 PM EDT
Astronomical Twilight 4:21 AM EDT 11:13 PM EDT
Moon 6:13 PM EDT (7/19) 3:04 AM EDT (7/19)
Length of Visible Light 15h 53m
Length of Day
14h 48m
Waxing Gibbous, 86% of the Moon is Illuminated
Jul 19
Waxing Gibbous
Jul 22
Full
Jul 29
Last Quarter
Aug 6
New
Aug 14
First Quarter

Hourly Weather History & Observations

Time (EDT) Temp. Heat Index Dew Point Humidity Pressure Visibility Wind Dir Wind Speed Gust Speed Precip Events Conditions
12:15 AM 78.8 °F - 73.4 °F 83% 30.01 in 10.0 mi SW 5.8 mph - N/A   Clear
12:34 AM 77.0 °F - 73.4 °F 89% 30.01 in 10.0 mi SSW 4.6 mph - N/A   Clear
12:55 AM 77.0 °F - 73.4 °F 89% 30.01 in 10.0 mi SSW 4.6 mph - N/A   Clear
1:14 AM 77.0 °F - 73.4 °F 89% 30.00 in 10.0 mi SW 4.6 mph - N/A   Clear
1:35 AM 75.2 °F - 73.4 °F 94% 30.00 in 10.0 mi SSW 5.8 mph - N/A   Clear
1:55 AM 75.2 °F - 73.4 °F 94% 30.00 in 10.0 mi SSW 4.6 mph - N/A   Clear
2:14 AM 75.2 °F - 73.4 °F 94% 29.99 in 10.0 mi SW 4.6 mph - N/A   Clear
2:35 AM 75.2 °F - 73.4 °F 94% 29.98 in 7.0 mi SSW 5.8 mph - N/A   Clear
2:55 AM 75.2 °F - 73.4 °F 94% 29.98 in 7.0 mi SSW 5.8 mph - N/A   Clear
3:14 AM 75.2 °F - 73.4 °F 94% 29.97 in 7.0 mi SSW 4.6 mph - N/A   Clear
3:35 AM 75.2 °F - 73.4 °F 94% 29.96 in 7.0 mi SSW 4.6 mph - N/A   Clear
3:55 AM 75.2 °F - 73.4 °F 94% 29.96 in 7.0 mi SW 5.8 mph - N/A   Clear
4:14 AM 75.2 °F - 73.4 °F 94% 29.96 in 7.0 mi SW 5.8 mph - N/A   Clear
4:35 AM 73.4 °F - 73.4 °F 100% 29.95 in 7.0 mi SW 5.8 mph - N/A   Clear
4:55 AM 73.4 °F - 73.4 °F 100% 29.95 in 7.0 mi SSW 6.9 mph - N/A   Clear
5:14 AM 75.2 °F - 73.4 °F 94% 29.94 in 5.0 mi SW 5.8 mph - N/A   Clear
5:35 AM 73.4 °F - 73.4 °F 100% 29.94 in 5.0 mi SW 5.8 mph - N/A   Clear
5:54 AM 73.4 °F - 73.4 °F 100% 29.94 in 5.0 mi SW 5.8 mph - N/A   Clear
6:15 AM 73.4 °F - 73.4 °F 100% 29.94 in 5.0 mi SW 5.8 mph - N/A   Clear
6:35 AM 73.4 °F - 71.6 °F 94% 29.94 in 5.0 mi SW 5.8 mph - N/A   Clear
6:54 AM 75.2 °F - 73.4 °F 94% 29.94 in 4.0 mi SW 6.9 mph - N/A   Clear
7:15 AM 75.2 °F - 73.4 °F 94% 29.94 in 5.0 mi SW 5.8 mph - N/A   Clear
7:34 AM 75.2 °F - 73.4 °F 94% 29.95 in 5.0 mi SW 5.8 mph - N/A   Clear
7:55 AM 77.0 °F - 73.4 °F 89% 29.94 in 7.0 mi SW 5.8 mph - N/A   Clear
8:15 AM 78.8 °F - 73.4 °F 83% 29.95 in 7.0 mi SW 8.1 mph - N/A   Clear
8:34 AM 78.8 °F - 73.4 °F 83% 29.95 in 7.0 mi SW 11.5 mph - N/A   Clear
8:55 AM 80.6 °F 85.4 °F 73.4 °F 79% 29.95 in 7.0 mi SW 9.2 mph - N/A   Clear
9:15 AM 80.6 °F 85.4 °F 73.4 °F 79% 29.95 in 10.0 mi WSW 10.4 mph - N/A   Clear
9:34 AM 82.4 °F 88.2 °F 73.4 °F 74% 29.95 in 10.0 mi SW 12.7 mph - N/A   Clear
9:55 AM 82.4 °F 88.2 °F 73.4 °F 74% 29.95 in 10.0 mi WSW 11.5 mph 18.4 mph N/A   Clear
10:15 AM 84.2 °F 92.3 °F 75.2 °F 74% 29.95 in 10.0 mi WSW 10.4 mph 18.4 mph N/A   Clear
10:34 AM 84.2 °F 90.9 °F 73.4 °F 70% 29.95 in 10.0 mi WSW 15.0 mph - N/A   Clear
10:55 AM 84.2 °F 90.9 °F 73.4 °F 70% 29.94 in 10.0 mi WSW 15.0 mph 19.6 mph N/A   Clear
11:15 AM 86.0 °F 95.1 °F 75.2 °F 70% 29.93 in 10.0 mi WSW 12.7 mph 20.7 mph N/A   Clear
11:34 AM 86.0 °F 95.1 °F 75.2 °F 70% 29.93 in 10.0 mi WSW 15.0 mph 20.7 mph N/A   Clear
11:55 AM 87.8 °F 97.6 °F 75.2 °F 66% 29.93 in 10.0 mi SW 13.8 mph - N/A   Clear
12:15 PM 87.8 °F 95.6 °F 73.4 °F 62% 29.92 in 10.0 mi WSW 16.1 mph 23.0 mph N/A   Clear
12:34 PM 87.8 °F 95.6 °F 73.4 °F 62% 29.91 in 10.0 mi SW 16.1 mph 24.2 mph N/A   Clear
12:55 PM 87.8 °F 95.6 °F 73.4 °F 62% 29.91 in 10.0 mi West 15.0 mph 23.0 mph N/A   Clear
1:14 PM 89.6 °F 98.2 °F 73.4 °F 59% 29.90 in 10.0 mi WSW 15.0 mph 23.0 mph N/A   Clear
1:34 PM 89.6 °F 98.2 °F 73.4 °F 59% 29.90 in 10.0 mi West 17.3 mph 25.3 mph N/A   Clear
1:55 PM 89.6 °F 98.2 °F 73.4 °F 59% 29.89 in 10.0 mi SW 16.1 mph 20.7 mph N/A   Clear
2:14 PM 89.6 °F 98.2 °F 73.4 °F 59% 29.87 in 10.0 mi WSW 18.4 mph 24.2 mph N/A   Clear
2:34 PM 89.6 °F 98.2 °F 73.4 °F 59% 29.87 in 10.0 mi SW 18.4 mph 24.2 mph N/A   Scattered Clouds
2:55 PM 89.6 °F 98.2 °F 73.4 °F 59% 29.86 in 10.0 mi WSW 18.4 mph 25.3 mph N/A   Clear
3:14 PM 89.6 °F 98.2 °F 73.4 °F 59% 29.85 in 10.0 mi SW 17.3 mph 26.5 mph N/A   Clear
3:34 PM 89.6 °F 98.2 °F 73.4 °F 59% 29.84 in 10.0 mi SW 17.3 mph 24.2 mph N/A   Clear
3:55 PM 89.6 °F 96.2 °F 71.6 °F 55% 29.84 in 10.0 mi WSW 18.4 mph 24.2 mph N/A   Clear
4:14 PM 91.4 °F 100.1 °F 73.4 °F 55% 29.83 in 10.0 mi WSW 16.1 mph 20.7 mph N/A   Clear
4:35 PM 91.4 °F 98.4 °F 71.6 °F 52% 29.82 in 10.0 mi WSW 13.8 mph 18.4 mph N/A   Clear
4:55 PM 89.6 °F 96.2 °F 71.6 °F 55% 29.82 in 10.0 mi WSW 13.8 mph 24.2 mph N/A   Clear
5:14 PM 89.6 °F 96.2 °F 71.6 °F 55% 29.81 in 10.0 mi WSW 19.6 mph 25.3 mph N/A   Clear
5:35 PM 89.6 °F 96.2 °F 71.6 °F 55% 29.81 in 10.0 mi SW 16.1 mph 24.2 mph N/A   Clear
5:55 PM 89.6 °F 96.2 °F 71.6 °F 55% 29.80 in 10.0 mi WSW 17.3 mph 24.2 mph N/A   Clear
6:14 PM 89.6 °F 96.2 °F 71.6 °F 55% 29.80 in 10.0 mi SW 16.1 mph 23.0 mph N/A   Clear
6:35 PM 89.6 °F 96.2 °F 71.6 °F 55% 29.79 in 10.0 mi WSW 17.3 mph 24.2 mph N/A   Clear
6:55 PM 89.6 °F 96.2 °F 71.6 °F 55% 29.79 in 10.0 mi WSW 15.0 mph 21.9 mph N/A   Clear
7:15 PM 87.8 °F 95.6 °F 73.4 °F 62% 29.80 in 10.0 mi SW 10.4 mph 18.4 mph N/A   Clear
7:35 PM 87.8 °F 95.6 °F 73.4 °F 62% 29.80 in 10.0 mi WSW 10.4 mph - N/A   Scattered Clouds
7:54 PM 86.0 °F 91.8 °F 71.6 °F 62% 29.80 in 10.0 mi SW 10.4 mph - N/A   Scattered Clouds
8:15 PM 86.0 °F 91.8 °F 71.6 °F 62% 29.80 in 10.0 mi SW 10.4 mph - N/A   Scattered Clouds
8:35 PM 84.2 °F 89.6 °F 71.6 °F 66% 29.80 in 10.0 mi SW 9.2 mph - N/A   Clear
8:54 PM 84.2 °F 89.6 °F 71.6 °F 66% 29.80 in 10.0 mi SW 10.4 mph - N/A   Scattered Clouds
9:15 PM 82.4 °F 87.2 °F 71.6 °F 70% 29.80 in 10.0 mi SW 9.2 mph - N/A   Clear
9:34 PM 82.4 °F 87.2 °F 71.6 °F 70% 29.80 in 10.0 mi SW 8.1 mph - N/A   Clear
9:55 PM 82.4 °F 87.2 °F 71.6 °F 70% 29.79 in 10.0 mi SW 8.1 mph - N/A   Clear
10:15 PM 80.6 °F 84.6 °F 71.6 °F 74% 29.79 in 10.0 mi SW 8.1 mph - N/A   Clear
10:34 PM 80.6 °F 85.4 °F 73.4 °F 79% 29.79 in 10.0 mi SW 8.1 mph - N/A   Clear
10:55 PM 80.6 °F 85.4 °F 73.4 °F 79% 29.79 in 10.0 mi SW 10.4 mph - N/A   Clear
11:15 PM 80.6 °F 85.4 °F 73.4 °F 79% 29.80 in 10.0 mi SW 10.4 mph - N/A   Clear
11:34 PM 80.6 °F 85.4 °F 73.4 °F 79% 29.81 in 10.0 mi SW 10.4 mph - N/A   Mostly Cloudy
11:55 PM 80.6 °F 85.4 °F 73.4 °F 79% 29.81 in 10.0 mi SW 11.5 mph 17.3 mph N/A   Scattered Clouds